Regional Weather Roundup
Issued by NWS Jackson, KY

Home | Current Version | Previous Version | Text Only | Print | Product List | Glossary Off
Versions: 1 2 3 4 5 6 7 8 9 10 11 12 13 14 15 16 17 18 19 20 21 22 23 24 25 26 27 28 29 30 31 32 33 34 35 36 37 38 39 40 41 42 43 44 45 46 47 48 49 50

000
ASUS43 KJKL 061710
RWRJKL

EAST KENTUCKY HOURLY WEATHER ROUNDUP
NATIONAL WEATHER SERVICE JACKSON KY
1200 PM EST TUE DEC 06 2016

NOTE: "FAIR" INDICATES FEW OR NO CLOUDS BELOW 12,000 FEET WITH
NO SIGNIFICANT WEATHER AND/OR OBSTRUCTIONS TO VISIBILITY.

* THESE REPORTS ARE NOT UNDER NWS QUALITY CONTROL AND MAY NOT
  REPORT WEATHER SUCH AS PRECIPITATION AND FOG.

KYZ079-080-083-085-087-088-110-112-115-119-120-061800
...EASTERN KENTUCKY...

CITY           SKY/WX    TMP DP  RH WIND       PRES   REMARKS
JACKSON        LGT RAIN  54  52  93 CALM      29.61S
LONDON         TSTM      52  49  89 SW7       29.68R FOG
SOMERSET*      RAIN      52  52 100 W3        29.69R
MONTICELLO*    LGT RAIN  53  52  96 NW13      29.69S
WILLIAMSBURG*  CLOUDY    50  50 100 SW9       29.69R
MIDDLESBORO*   RAIN      49  48  95 CALM      29.69F
HARLAN APT*    CLOUDY    50  45  81 CALM      29.68R
PIKE CO APT*   CLOUDY    48  48  97 SE15G26   29.63F
BIG SANDY APT* CLOUDY    51  49  93 SE20G25   29.62R
MOREHEAD APT*  CLOUDY    48  46  93 CALM      29.65F
ASHLAND*       CLOUDY    48  46  93 NW5       29.63R
$$

KYZ035-036-041-042-044-050-067-078-099-061800
...CENTRAL KENTUCKY...

CITY           SKY/WX    TMP DP  RH WIND       PRES   REMARKS
MT STERLING*   DRIZZLE   48  46  93 NW5       29.66S
FLEMING/MASON* DRIZZLE   47  46  97 W7        29.65S
DANVILLE*      LGT RAIN  46  45  93 CALM      29.67S
LEXINGTON      RAIN      47  45  93 S3        29.64F FOG
FRANKFORT      LGT RAIN  46  43  89 NW7       29.65R FOG
LOUISVILLE     RAIN      44  41  89 NW5       29.69S FOG
LEBANON*       LGT RAIN  46  46 100 SW3       29.67S
GLASGOW*       LGT RAIN N/A N/A N/A CALM      29.68R
BOWLING GREEN  LGT RAIN  48  45  89 NW6       29.70R
$$

KYZ091>093-OHZ055-061-077-WVZ005-015-034-035-042-061800
...SOUTHERN OHIO/WEST VIRGINIA...

CITY           SKY/WX    TMP DP  RH WIND       PRES   REMARKS
COVINGTON      RAIN      40  39  97 NW8       29.66S VSB 1/2 WCI  34
COLUMBUS       RAIN      41  41 100 SE8       29.65F FOG
DAYTON         RAIN      38  38 100 N6        29.68F FOG     WCI  33
WILMINGTON     LGT RAIN  41  41 100 CALM      29.63F FOG
HUNTINGTON     LGT RAIN  48  46  93 S9G28     29.58F
CHARLESTON     RAIN      46  43  89 SE5       29.71S FOG
PINEVILLE*     LGT SNOW  42  38  86 MISG      29.80F
BECKLEY        HVY RAIN  38  36  92 SE15      29.79R FOG     WCI  29
BLUEFIELD      LGT RAIN  36  33  89 SE9G18    29.78S WCI  29
LOGAN CO APT*  PTSUNNY   45  43  93 SE6G18    29.70F
$$

VAZ002-007-008-TNZ017-027-036-066-071-061800
...SOUTHWEST VIRGINIA/EAST TENNESSEE...

CITY           SKY/WX    TMP DP  RH WIND       PRES   REMARKS
WISE*          LGT RAIN  43  43 100 SE12G23   29.68F
JONESVILLE*    LGT RAIN  50  46  87 CALM      29.72F
ABINGDON*      LGT RAIN  43  41  91 SE22      29.73F
BRISTOL        RAIN      46  44  93 E8        29.74F FOG
MORRISTOWN*    CLOUDY    50  48  93 E7        29.67F FOG
SEVIERVILLE*   CLOUDY    48  48 100 CALM      29.68R
KNOXVILLE      HVY RAIN  50  48  93 W15G24    29.73R FOG
OAK RIDGE      LGT RAIN  52  49  89 CALM      29.71F FOG
CROSSVILLE     LGT RAIN  52  50  93 S5        29.69F
NASHVILLE      DRZL/FOG  54  51  90 W7        29.69S VSB 1
$$

...KEY TO REMARKS...
VSB - VISIBILITY IN MILES
WCI - WIND CHILL INDEX
HX  - HEAT INDEX

$$



USA.gov is the U.S. government's official web portal to all federal, state and local government web resources and services.